#timestamp,LO_Frequency,Hit,StdDev 
1630483215.2,286046999.8,N
1630483235.1,286047001.4,N
1630483236.0,286047001.4,N
1630483255.8,286047004.4,Y
1630483275.6,286047002.4,P
1630483295.5,286047001.8,N
1630483315.3,286047000.4,N
1630483335.2,286046999.9,N
1630483355.9,286047002.3,N
1630483375.7,286047004.4,Y
1630483395.6,286047000.2,P
1630483415.4,286047002.2,P
1630483435.2,286047002.1,N
1630483455.1,286047001.9,N
1630483456.0,286047001.9,N
1630483475.8,286047001.9,N
1630483495.7,286047001.5,N
1630483515.5,286047002.0,Y
1630483535.3,286047000.1,P
1630483555.2,286047001.0,N
1630483575.0,286047001.2,N
1630483575.9,286047001.2,N
1630483595.7,286047000.9,N
1630483615.6,286046999.3,N
1630483635.4,286046998.4,N
1630483655.3,286046999.3,N
1630483675.1,286046998.3,N
1630483676.0,286046998.3,N
1630483695.8,286047001.1,N
1630483745.7,286046999.1,E
1630483755.6,286046996.7,N
1630483775.5,286046996.6,P
1630483795.3,286046998.7,P
1630483815.1,286046998.8,N
1630483835.9,286046998.7,N
1630483855.7,286046998.6,N
1630483875.6,286046998.4,N
1630483895.4,286047001.0,N
1630483915.2,286046999.0,N
1630483935.1,286046999.2,N
1630483936.0,286046999.2,N
1630483955.8,286046997.2,N
1630483975.7,286046995.1,Y
1630483995.5,286046999.6,P
1630484015.3,286046999.1,N
1630484035.2,286046998.5,P
1630484055.0,286046999.0,N
1630484055.9,286046999.0,N
1630484075.7,286046994.9,Y
1630484095.6,286046999.4,P
1630484115.4,286046998.5,P
1630484135.3,286047000.8,N
1630484155.1,286047001.2,N
1630484156.0,286047001.2,N
1630484175.8,286047000.2,N
1630484195.7,286047000.0,N
1630484215.5,286047001.0,N
1630484235.4,286047000.9,N
1630484255.2,286047001.1,N
1630484275.0,286047001.2,N
1630484275.9,286047001.2,N
1630484295.8,286046998.4,N
1630484315.6,286047000.6,N
1630484335.5,286047000.1,N
1630484355.3,286047002.8,N
1630484375.1,286047000.7,N
1630484395.9,286047000.0,N
1630484415.7,286047000.4,N
1630484435.5,286047000.9,N
1630484455.4,286046999.8,N
1630484475.2,286047000.7,N
1630484495.1,286047000.7,N
1630484496.0,286047000.7,N
1630484515.8,286046998.6,N
1630484535.6,286046999.0,N
1630484555.5,286046998.3,N
1630484575.3,286046997.1,N
1630484595.1,286046999.6,N
1630484615.9,286046998.5,N
1630484635.7,286046996.8,N
1630484655.6,286046997.3,N
1630484675.4,286046997.1,N
1630484695.2,286046996.6,N
1630484715.1,286046996.9,N
1630484716.0,286046996.9,N
1630484735.8,286046997.4,N
1630484755.6,286046999.2,N
1630484775.5,286046999.5,N
1630484795.3,286046997.1,N
1630484815.2,286046997.9,N
1630484835.9,286046997.1,N
1630484855.7,286046997.7,N
1630484875.6,286046998.0,N
1630484895.4,286046995.3,N
1630484915.3,286046996.0,N
1630484935.1,286046996.8,N
1630484936.0,286046996.8,N
1630484955.8,286046995.0,Y
1630484975.7,286046999.0,P
1630484995.5,286046999.6,N
1630485015.4,286046998.7,N
1630485035.2,286046999.6,N
1630485055.0,286046997.4,Y
1630485055.9,286046997.4,P
1630485075.8,286046997.1,P
1630485095.6,286046995.3,P
1630485115.4,286046997.8,N
1630485135.3,286046997.0,N
1630485155.1,286046997.7,N
1630485175.9,286046997.7,N
1630485195.7,286046997.0,Y
1630485215.5,286046999.7,P
1630485235.4,286046998.4,N
1630485255.2,286046998.2,N
1630485275.1,286046998.1,N
1630485276.0,286046998.1,N
1630485295.8,286047000.9,N
1630485315.6,286047000.5,N
1630485335.5,286047001.1,N
1630485355.3,286046998.4,N
1630485375.1,286047000.9,N
1630485395.9,286046998.3,N
1630485415.7,286046998.7,N
1630485435.6,286046996.6,N
1630485455.4,286046999.2,N
1630485475.2,286046999.4,N
1630485495.1,286046999.0,N
1630485496.0,286046999.0,N
1630485515.8,286046996.5,N
1630485535.6,286046996.9,N
1630485555.5,286046996.5,N
1630485575.3,286046999.6,N
1630485595.2,286046997.0,N
1630485615.9,286046999.2,N
1630485635.7,286046997.1,N
1630485655.6,286046999.2,N
1630485675.4,286046998.8,N
1630485695.2,286046999.4,N
1630485715.1,286046997.1,N
1630485716.0,286046997.1,N
1630485735.8,286046997.2,N
1630485755.7,286046997.0,N
1630485775.5,286046996.6,N
1630485795.3,286046997.2,N
1630485815.2,286046997.0,N
1630485835.0,286046995.0,Y
1630485835.9,286046995.0,P
1630485855.8,286046999.2,N
1630485875.6,286046996.6,N
1630485895.4,286046996.5,N
1630485915.3,286046998.4,N
1630485935.1,286047001.1,N
1630485955.8,286046998.7,N
1630485975.7,286046999.0,N
1630485995.5,286046997.0,N
1630486015.4,286046997.2,N
1630486035.2,286046997.7,N
1630486055.0,286046996.6,N
1630486055.9,286046996.6,N
1630486075.8,286046996.5,N
1630486095.6,286046997.0,N
1630486115.4,286046998.4,N
1630486135.3,286046998.7,N
1630486155.1,286046997.2,N
1630486175.9,286046999.6,N
1630486195.7,286046997.4,N
1630486215.5,286046997.1,N
1630486235.4,286046996.5,N
1630486255.2,286046997.3,N
1630486275.0,286046997.5,N
1630486275.9,286046997.5,N
1630486295.8,286046997.5,N
1630486315.6,286046997.4,N
1630486335.5,286046996.7,N
1630486355.3,286046996.7,N
1630486375.1,286046997.2,N
1630486395.9,286046997.5,N
1630486415.7,286046997.3,N
1630486435.5,286046997.1,N
1630486455.4,286046996.5,Y
1630486475.2,286046999.9,P
1630486495.1,286047001.8,N
1630486496.0,286047001.8,N
1630486515.8,286047000.5,N
1630486535.6,286047000.0,N
1630486555.5,286047002.7,N
1630486575.3,286047000.7,N
1630486595.1,286046998.6,N
1630486615.9,286046999.4,N
1630486635.7,286046998.1,N
1630486655.6,286046998.5,N
1630486675.4,286047001.1,N
1630486695.2,286047000.7,N
1630486715.1,286046998.6,N
1630486716.0,286046998.6,N
1630486735.8,286046998.5,N
1630486755.6,286046998.4,N
1630486775.5,286046998.2,N
1630486795.3,286046998.5,N
